[[{"header":{"parameterUnit":"m.s-1","parameterCategory":1,"la1":30.2991,"la2":30.254,"lo1":-89.0895,"lo2":-89.0444,"dy":0.0017,"dx":0.0017,"nx":28,"ny":28,"refTime":"2024-04-24T03:00:00:Z","depth":0,"parameterNumber":2,"parameterNumberName":"U-component_of_WINDS"},"data":[0,0,0,0,0,0,0,0,0,0,0,0,0,0,0,0,0,0,0,0,0,0,0,0,0,0,0,0,0,0,0,0,0,0,0,0,0,0,0,0,0,0,0,0,0,0,0,0,0,0,0,0,0,0,0,0,0,0,-2.0483,-2.0482,0,-2.0454,-2.0454,-2.0454,-2.0405,-2.0404,-2.0403,-2.0403,-2.0372,-2.0372,-2.0372,0,0,0,0,0,0,0,0,0,0,0,0,0,-2.0495,-2.0495,-2.0483,-2.0482,-2.0482,-2.0454,-2.0454,-2.0454,-2.0405,-2.0404,-2.0403,-2.0402,-2.0372,-2.0372,-2.0372,0,0,0,0,0,0,0,0,0,0,0,0,0,-2.048,-2.0495,-2.0483,-2.0455,-2.0452,-2.0454,-2.0454,-2.0453,-2.0406,-2.0404,-2.0403,-2.0402,-2.0372,-2.0372,-2.0372,-2.0399,0,0,-2.0372,-2.0372,0,0,0,0,0,0,0,0,-2.0481,-2.048,-2.0459,-2.0457,-2.0453,-2.0432,-2.0447,-2.0435,-2.0406,-2.0423,-2.0403,-2.0401,-2.0393,-2.0391,-2.0388,-2.0397,-2.0396,-2.0372,-2.0372,-2.0372,-2.0372,0,0,0,0,0,0,0,-2.0482,-2.0481,-2.0471,-2.0459,-2.0455,-2.0443,-2.044,-2.0444,-2.0416,-2.0422,-2.0418,-2.0415,-2.0391,-2.0388,-2.0387,-2.0395,-2.0372,-2.0372,-2.0372,-2.0372,-2.0426,-2.0428,0,0,0,0,0,0,-2.0487,-2.0482,-2.0472,-2.047,-2.0464,-2.0444,-2.044,-2.044,-2.0416,-2.0411,-2.0417,-2.0413,-2.0389,-2.0387,-2.0386,-2.0417,-2.0372,-2.0372,-2.0372,-2.0425,-2.0427,-2.0428,0,0,0,0,0,0,-2.0488,-2.0487,-2.0473,-2.0475,-2.0473,-2.0445,-2.0446,-2.044,-2.0438,-2.0412,-2.0406,-2.042,-2.0388,-2.0386,-2.0396,-2.0415,-2.0372,-2.0372,-2.0423,-2.0425,-2.0427,-2.0478,0,0,0,0,0,0,-2.0488,-2.0487,-2.0497,-2.0476,-2.0473,-2.0484,-2.0447,-2.0441,-2.0438,-2.0434,-2.0413,-2.0408,-2.0387,-2.0397,-2.0396,-2.0414,-2.0372,-2.0421,-2.0424,-2.0427,-2.0475,-2.0482,-2.0488,0,0,0,0,0,-2.0489,-2.0512,-2.0498,-2.0497,-2.0485,-2.0486,-2.0484,-2.0459,-2.044,-2.045,-2.0433,-2.0409,-2.0413,-2.0398,-2.0397,-2.0415,-2.042,-2.0423,-2.0427,-2.0472,-2.048,-2.0488,0,0,0,0,0,0,-2.0535,-2.0509,-2.0493,-2.051,-2.05,-2.0477,-2.0489,-2.0469,-2.0464,-2.046,-2.0429,-2.0425,-2.0439,-2.0428,-2.0412,-2.0441,-2.0413,-2.0416,-2.0447,-2.0455,-2.0462,-2.0464,-2.0372,0,0,0,0,0,-2.0548,-2.0551,-2.0527,-2.0544,-2.0541,-2.0516,-2.0515,-2.0497,-2.0486,-2.0482,-2.0466,-2.0456,-2.0455,-2.0454,-2.0452,-2.0473,-2.0468,-2.0486,-2.0492,-2.0498,-2.0501,-2.0512,-2.052,-2.0439,-2.0439,-2.0439,0,0,-2.0572,-2.0558,-2.0562,-2.0553,-2.0544,-2.0548,-2.0513,-2.0518,-2.0521,-2.0482,-2.0491,-2.048,-2.0466,-2.0483,-2.0489,-2.0474,-2.0522,-2.0502,-2.0506,-2.0506,-2.0516,-2.0524,-2.0531,-2.0441,-2.0441,-2.044,0,0,-2.062,-2.061,-2.0624,-2.0616,-2.0602,-2.0586,-2.059,-2.057,-2.0561,-2.057,-2.0542,-2.0545,-2.0544,-2.0536,-2.0531,-2.0579,-2.0557,-2.0579,-2.0613,-2.0625,-2.0631,-2.0637,-2.0654,-2.0661,-2.0582,-2.0582,-2.0582,0,-2.0653,-2.0658,-2.0633,-2.0641,-2.0638,-2.0605,-2.0619,-2.0612,-2.0599,-2.0597,-2.0581,-2.0581,-2.0569,-2.0583,-2.0595,-2.0593,-2.0596,-2.0581,-2.0632,-2.0638,-2.0642,-2.0659,-2.0665,-2.0585,-2.0585,-2.0585,-2.0584,0,-2.0699,-2.0704,-2.0716,-2.0705,-2.0704,-2.0715,-2.0692,-2.0693,-2.0676,-2.0662,-2.0672,-2.0658,-2.0652,-2.0655,-2.0637,-2.0667,-2.0659,-2.0638,-2.0609,-2.0653,-2.0668,-2.0674,-2.0589,-2.0588,-2.0587,-2.0587,0,0,-2.0773,-2.075,-2.0755,-2.0751,-2.0735,-2.0738,-2.0748,-2.0743,-2.0746,-2.0738,-2.0746,-2.0747,-2.0729,-2.0724,-2.0706,-2.0716,-2.0756,-2.0694,-2.0693,-2.0706,-2.0789,-2.0804,-2.0812,-2.0741,-2.0742,-2.0743,-2.079,0,-2.0817,-2.0833,-2.0812,-2.0832,-2.0836,-2.0806,-2.0815,-2.0806,-2.0794,-2.0795,-2.0781,-2.0783,-2.0758,-2.0755,-2.0764,-2.0749,-2.0772,-2.0745,-2.0748,-2.0748,-2.0752,-2.0819,-2.0835,-2.0879,-2.0795,-2.0796,-2.0797,0,-2.087,-2.0867,-2.0889,-2.0873,-2.0874,-2.0882,-2.0878,-2.088,-2.087,-2.086,-2.0856,-2.0835,-2.0844,-2.0817,-2.0829,-2.0812,-2.0812,-2.0805,-2.0806,-2.0805,-2.0775,-2.082,-2.0893,-2.09,-2.0806,-2.0805,-2.0804,0,-2.0923,-2.0924,-2.0937,-2.0934,-2.0916,-2.0923,-2.0916,-2.0904,-2.0904,-2.09,-2.09,-2.0897,-2.0895,-2.0893,-2.0872,-2.0854,-2.0887,-2.0858,-2.0879,-2.088,-2.0887,-2.0886,-2.0961,-2.0888,-2.0887,-2.0887,-2.0887,0,-2.0974,-2.0989,-2.096,-2.0968,-2.0984,-2.096,-2.0976,-2.0965,-2.0956,-2.0962,-2.0936,-2.0941,-2.0914,-2.0917,-2.09,-2.0913,-2.0913,-2.0905,-2.09,-2.0907,-2.0908,-2.0906,-2.0902,-2.0889,-2.0889,-2.0888,-2.0888,0,-2.1035,-2.1016,-2.1029,-2.1012,-2.1008,-2.102,-2.1006,-2.1013,-2.0999,-2.1007,-2.1007,-2.0986,-2.0988,-2.0968,-2.0966,-2.0955,-2.0976,-2.0966,-2.0979,-2.0976,-2.0999,-2.0997,-2.1074,-2.1083,-2.1004,-2.1005,-2.1006,0,-2.1068,-2.1079,-2.1064,-2.1066,-2.1061,-2.1065,-2.1065,-2.1042,-2.1043,-2.1034,-2.1042,-2.1043,-2.1042,-2.1047,-2.1031,-2.103,-2.102,-2.1047,-2.1019,-2.1027,-2.1021,-2.102,-2.1021,-2.1053,-2.1054,-2.1055,-2.1055,0,-2.1131,-2.1122,-2.1123,-2.1121,-2.1122,-2.112,-2.1116,-2.1119,-2.1094,-2.1097,-2.11,-2.11,-2.1099,-2.11,-2.1096,-2.1088,-2.1068,-2.1065,-2.1069,-2.1076,-2.1084,-2.108,-2.0995,-2.1062,-2.1062,-2.1061,-2.1061,-2.1061,-2.1179,-2.1187,-2.1178,-2.1181,-2.1176,-2.1173,-2.1179,-2.1167,-2.117,-2.1168,-2.1154,-2.116,-2.1151,-2.1144,-2.1139,-2.1143,-2.113,-2.1137,-2.1138,-2.1141,-2.1145,-2.1084,-2.1142,-2.1142,-2.1142,-2.1142,-2.1141,0,-2.1239,-2.1233,-2.1236,-2.1231,-2.1234,-2.1216,-2.1211,-2.1214,-2.1219,-2.1213,-2.1214,-2.1218,-2.1219,-2.1205,-2.1204,-2.1211,-2.1201,-2.1211,-2.121,-2.1209,-2.1156,-2.1152,-2.1219,-2.1219,-2.1219,-2.1219,-2.1219,-2.1219,-2.1271,-2.1285,-2.1275,-2.1287,-2.128,-2.1286,-2.1285,-2.1282,-2.1278,-2.1284,-2.1285,-2.1276,-2.1267,-2.1266,-2.1267,-2.1263,-2.1264,-2.1277,-2.127,-2.122,-2.1213,-2.1206,-2.1202,-2.1277,-2.1277,-2.1322,-2.1322,-2.1323]},{"header":{"parameterUnit":"m.s-1","parameterCategory":1,"la1":30.2991,"la2":30.254,"lo1":-89.0895,"lo2":-89.0444,"dy":0.0017,"dx":0.0017,"nx":28,"ny":28,"refTime":"2024-04-24T03:00:00:Z","depth":0,"parameterNumber":3,"parameterNumberName":"V-component_of_WINDS"},"data":[0,0,0,0,0,0,0,0,0,0,0,0,0,0,0,0,0,0,0,0,0,0,0,0,0,0,0,0,0,0,0,0,0,0,0,0,0,0,0,0,0,0,0,0,0,0,0,0,0,0,0,0,0,0,0,0,0,0,2.7013,2.7013,0,2.6999,2.6999,2.6998,2.7041,2.7043,2.7044,2.7045,2.7023,2.7022,2.702,0,0,0,0,0,0,0,0,0,0,0,0,0,2.7071,2.707,2.7013,2.7013,2.7013,2.6999,2.6998,2.6998,2.7041,2.7043,2.7044,2.7046,2.7024,2.7022,2.702,0,0,0,0,0,0,0,0,0,0,0,0,0,2.705,2.707,2.7013,2.7032,2.7034,2.6999,2.6998,2.6998,2.7041,2.7043,2.7045,2.7047,2.7025,2.7022,2.7019,2.6963,0,0,2.7011,2.701,0,0,0,0,0,0,0,0,2.7051,2.7048,2.703,2.7031,2.7033,2.7024,2.7011,2.6986,2.704,2.7038,2.7045,2.7048,2.7022,2.7019,2.7012,2.6961,2.6961,2.7011,2.7009,2.7008,2.7007,0,0,0,0,0,0,0,2.7053,2.7049,2.7007,2.7029,2.7031,2.704,2.7039,2.7007,2.7018,2.7038,2.7041,2.704,2.7023,2.7014,2.7012,2.696,2.7011,2.7009,2.7007,2.7006,2.6863,2.6861,0,0,0,0,0,0,2.7053,2.705,2.7008,2.7007,2.7047,2.7037,2.7036,2.7025,2.7019,2.702,2.7038,2.7042,2.7018,2.7015,2.7011,2.6944,2.7008,2.7005,2.7004,2.6865,2.6862,2.686,0,0,0,0,0,0,2.7054,2.7048,2.7008,2.7029,2.7025,2.7034,2.7021,2.7023,2.7015,2.7019,2.702,2.7028,2.702,2.7015,2.6975,2.6944,2.7004,2.7002,2.6867,2.6864,2.6861,2.681,0,0,0,0,0,0,2.7055,2.7049,2.7028,2.7028,2.7023,2.6974,2.7019,2.7022,2.7011,2.7016,2.701,2.701,2.7021,2.6979,2.6972,2.6941,2.7,2.687,2.6866,2.6862,2.6814,2.6805,2.6797,0,0,0,0,0,2.7057,2.7013,2.7027,2.7022,2.6999,2.6972,2.6969,2.6984,2.7009,2.6987,2.699,2.7011,2.6949,2.6974,2.6967,2.6935,2.6872,2.6867,2.6863,2.6818,2.6807,2.6798,0,0,0,0,0,0,2.7005,2.7013,2.7029,2.6984,2.6977,2.6979,2.6953,2.6971,2.6956,2.696,2.6978,2.6976,2.6932,2.693,2.6958,2.688,2.6915,2.6908,2.6883,2.6873,2.6864,2.6865,2.6997,0,0,0,0,0,2.6989,2.6969,2.6976,2.6935,2.6931,2.6943,2.6931,2.6944,2.6937,2.6934,2.6933,2.6924,2.6902,2.6887,2.6868,2.6815,2.6813,2.6789,2.6781,2.6774,2.6767,2.6739,2.6728,2.6844,2.6844,2.6844,0,0,2.6954,2.6956,2.6942,2.6925,2.6921,2.6898,2.694,2.6913,2.6896,2.6929,2.6892,2.6891,2.6881,2.6835,2.6814,2.6831,2.6736,2.6768,2.6762,2.6759,2.6733,2.6722,2.6712,2.6841,2.6841,2.6842,0,0,2.688,2.6879,2.6846,2.6842,2.6837,2.6846,2.6837,2.6837,2.6839,2.6803,2.6827,2.6806,2.6768,2.6761,2.6752,2.6677,2.6695,2.667,2.6625,2.6597,2.6588,2.658,2.6552,2.6542,2.6664,2.6663,2.6663,0,2.6836,2.6805,2.6825,2.6798,2.6789,2.6821,2.6787,2.6781,2.6769,2.6761,2.6782,2.6737,2.6733,2.6685,2.6667,2.6659,2.6649,2.6669,2.6588,2.658,2.6573,2.6547,2.6536,2.666,2.6661,2.6661,2.6661,0,2.6751,2.6729,2.6702,2.6693,2.6681,2.665,2.6664,2.665,2.6664,2.6669,2.6632,2.6629,2.6609,2.6599,2.6611,2.6553,2.6564,2.6586,2.662,2.6559,2.6534,2.6524,2.6656,2.6657,2.6658,2.6659,0,0,2.6641,2.6646,2.6635,2.6632,2.663,2.6612,2.6582,2.6566,2.6553,2.6544,2.6518,2.6487,2.6509,2.6499,2.651,2.6486,2.6426,2.6511,2.6511,2.6495,2.6361,2.6343,2.6332,2.6439,2.6437,2.6436,2.6361,0,2.6567,2.6519,2.6537,2.6486,2.6465,2.6496,2.647,2.6465,2.647,2.6452,2.6456,2.6434,2.6464,2.6458,2.6436,2.6438,2.6399,2.6444,2.6413,2.6412,2.6414,2.6319,2.63,2.623,2.6352,2.635,2.6349,0,2.6474,2.6464,2.6412,2.6415,2.6407,2.6383,2.637,2.6353,2.6348,2.6353,2.6343,2.636,2.633,2.6366,2.6323,2.6353,2.6342,2.6342,2.6339,2.6336,2.6376,2.6312,2.6208,2.6197,2.6335,2.6336,2.6337,0,2.6398,2.6372,2.6337,2.6333,2.6336,2.6319,2.6318,2.6316,2.6305,2.6293,2.6286,2.627,2.6261,2.6247,2.6259,2.6285,2.6214,2.6251,2.6216,2.6215,2.6198,2.6199,2.609,2.6193,2.6193,2.6193,2.6193,0,2.6312,2.6279,2.6304,2.6282,2.6245,2.6267,2.6229,2.6232,2.623,2.6208,2.6234,2.6212,2.6231,2.621,2.622,2.6183,2.6178,2.618,2.6183,2.6177,2.6177,2.6169,2.6174,2.619,2.6191,2.6192,2.6192,0,2.6221,2.6236,2.6201,2.6207,2.6208,2.6181,2.6185,2.6165,2.6173,2.6145,2.614,2.6151,2.6129,2.614,2.6116,2.6123,2.6075,2.6084,2.6077,2.6079,2.6043,2.6046,2.5924,2.5909,2.6022,2.6021,2.602,0,2.6165,2.614,2.6145,2.6134,2.6133,2.6114,2.6105,2.6125,2.6113,2.6106,2.6086,2.6067,2.6053,2.6016,2.6021,2.6003,2.6011,2.597,2.6008,2.6004,2.601,2.6011,2.6008,2.5962,2.596,2.5959,2.5958,0,2.6063,2.6073,2.6059,2.6048,2.6037,2.6028,2.6022,2.601,2.6031,2.6016,2.5996,2.5985,2.5962,2.5942,2.5927,2.5925,2.5944,2.5947,2.5938,2.5931,2.5928,2.5928,2.6055,2.5949,2.595,2.5951,2.5951,2.5951,2.5987,2.5967,2.5968,2.5952,2.595,2.5944,2.5926,2.5932,2.5916,2.5901,2.5914,2.5889,2.5885,2.5867,2.5862,2.5842,2.5858,2.5845,2.5841,2.5837,2.5832,2.5932,2.5839,2.584,2.584,2.584,2.584,0,2.5887,2.589,2.5875,2.5867,2.5854,2.5877,2.5871,2.5858,2.5837,2.5833,2.5819,2.5795,2.5777,2.5781,2.5764,2.5746,2.5755,2.5741,2.5742,2.5741,2.5819,2.5829,2.5735,2.5735,2.5735,2.5735,2.5735,2.5735,2.5833,2.5801,2.581,2.5777,2.5779,2.5757,2.5752,2.5746,2.5743,2.5716,2.5702,2.5706,2.5705,2.5688,2.5672,2.5673,2.5665,2.5648,2.5652,2.5725,2.5735,2.5745,2.5754,2.5646,2.5646,2.5576,2.5575,2.5575]}]]